Watsonville, CA

8:56 AM PDT on March 25, 2017 (GMT -0700)
Watsonville Municipal

Weather History for KWVI - October, 2010

Change the Weather History Date:

Thursday, October 28, 2010

  Actual Average Record
Temperature  
Mean Temperature 61 °F 59 °F  
Max Temperature 76 °F 71 °F 93 °F (2003)
Min Temperature 46 °F 47 °F 42 °F (2004)
Degree Days  
Heating Degree Days 4    
Month to date heating degree days 123  
Since 1 July heating degree days 455  
Cooling Degree Days 0    
Month to date cooling degree days 17  
Year to date cooling degree days 128  
Growing Degree Days 10 (Base 50)    
Moisture  
Dew Point 40 °F    
Average Humidity 48    
Maximum Humidity 75    
Minimum Humidity 21    
Precipitation  
Precipitation 0.00 in - 1.27 in (1981)
Month to date precipitation 0.69  
Year to date precipitation 12.42  
Since 1 July precipitation 0.70  
Sea Level Pressure  
Sea Level Pressure 30.01 in    
Wind  
Wind Speed 4 mph (WNW)    
Max Wind Speed 14 mph    
Max Gust Speed 18 mph    
Visibility 10 miles    
Events      
T = Trace of Precipitation, MM = Missing Value Source: NWS Daily Summary

Daily Weather History Graph

Daily Weather History Graph

Search for Another Location

Airport or City:

Trip Planner

Search our weather history database for the weather conditions in past years. The results will help you decide how hot, cold, wet, or windy it might be!

Date:

Astronomy

Oct. 28, 2010 Rise Set
Actual Time 7:27 AM PDT 6:14 PM PDT
Civil Twilight 7:00 AM PDT 6:40 PM PDT
Nautical Twilight 6:30 AM PDT 7:11 PM PDT
Astronomical Twilight 5:59 AM PDT 7:41 PM PDT
Moon 10:54 PM PDT (10/28) 12:47 PM PDT (10/28)
Length of Visible Light 11h 40m
Length of Day
10h 46m
Waning Gibbous, 69% of the Moon is Illuminated
Oct 28
Waning Gibbous
Oct 30
Last Quarter
Nov 5
New
Nov 13
First Quarter
Nov 21
Full

Hourly Weather History & Observations

Time (PDT) Temp. Dew Point Humidity Pressure Visibility Wind Dir Wind Speed Gust Speed Precip Events Conditions
12:53 AM 48.9 °F 37.0 °F 64% 30.06 in 10.0 mi NW 5.8 mph - N/A   Clear
1:53 AM 48.9 °F 37.0 °F 64% 30.06 in 10.0 mi WNW 4.6 mph - N/A   Clear
2:53 AM 48.9 °F 37.0 °F 64% 30.04 in 10.0 mi Calm Calm - N/A   Clear
3:53 AM 48.0 °F 39.0 °F 71% 30.03 in 10.0 mi Calm Calm - N/A   Clear
4:53 AM 48.0 °F 39.0 °F 71% 30.02 in 10.0 mi Calm Calm - N/A   Clear
5:53 AM 48.0 °F 37.9 °F 68% 30.02 in 10.0 mi NW 3.5 mph - N/A   Clear
6:53 AM 48.0 °F 37.0 °F 66% 30.03 in 10.0 mi NW 5.8 mph - N/A   Clear
7:53 AM 46.9 °F 37.9 °F 71% 30.03 in 10.0 mi Calm Calm - N/A   Clear
9:53 AM 57.9 °F 39.9 °F 51% 30.05 in 10.0 mi Calm Calm - N/A   Clear
10:53 AM 64.0 °F 35.1 °F 34% 30.04 in 10.0 mi Calm Calm - N/A   Clear
11:53 AM 70.0 °F 34.0 °F 27% 30.02 in 10.0 mi Calm Calm - N/A   Clear
12:53 PM 73.0 °F 34.0 °F 24% 29.99 in 10.0 mi North 4.6 mph - N/A   Clear
1:53 PM 75.0 °F 34.0 °F 22% 29.96 in 10.0 mi West 4.6 mph - N/A   Clear
2:53 PM 72.0 °F 36.0 °F 27% 29.96 in 10.0 mi WSW 11.5 mph - N/A   Clear
3:53 PM 66.9 °F 39.9 °F 37% 29.97 in 10.0 mi Variable 6.9 mph 18.4 mph N/A   Scattered Clouds
4:53 PM 66.0 °F 41.0 °F 40% 29.97 in 10.0 mi West 5.8 mph - N/A   Scattered Clouds
5:53 PM 64.0 °F 43.0 °F 46% 29.98 in 10.0 mi West 6.9 mph - N/A   Mostly Cloudy
6:53 PM 62.1 °F 46.0 °F 56% 29.98 in 10.0 mi West 8.1 mph - N/A   Mostly Cloudy
7:53 PM 60.1 °F 51.1 °F 72% 30.01 in 10.0 mi WNW 5.8 mph - N/A   Mostly Cloudy
8:53 PM 59.0 °F 51.1 °F 75% 30.02 in 10.0 mi WNW 4.6 mph - N/A   Partly Cloudy
9:53 PM 57.9 °F 48.9 °F 72% 30.02 in 10.0 mi Calm Calm - N/A   Clear
10:53 PM 57.9 °F 46.9 °F 67% 30.03 in 10.0 mi NNW 4.6 mph - N/A   Partly Cloudy
11:53 PM 55.0 °F 46.0 °F 72% 30.02 in 10.0 mi WNW 3.5 mph - N/A   Clear